[[{"header":{"parameterUnit":"m.s-1","parameterCategory":1,"la1":30.2991,"la2":30.254,"lo1":-89.0895,"lo2":-89.0444,"dy":0.0017,"dx":0.0017,"nx":28,"ny":28,"refTime":"2023-09-04T03:00:00:Z","depth":0,"parameterNumber":2,"parameterNumberName":"U-component_of_WINDS"},"data":[0,0,0,0,0,0,0,0,0,0,0,0,0,0,0,0,0,0,0,0,0,0,0,0,0,0,0,0,0,0,0,0,0,0,0,0,0,0,0,0,0,0,0,0,0,0,0,0,0,0,0,0,0,0,0,0,0,0,-4.2461,-4.2465,0,-4.2774,-4.2778,-4.2782,-4.2875,-4.2873,-4.2871,-4.287,-4.3193,-4.3203,-4.3213,0,0,0,0,0,0,0,0,0,0,0,0,0,-4.1946,-4.1955,-4.2461,-4.2465,-4.2469,-4.2774,-4.2778,-4.2782,-4.2875,-4.2873,-4.2871,-4.2869,-4.319,-4.3202,-4.3214,0,0,0,0,0,0,0,0,0,0,0,0,0,-4.2205,-4.1958,-4.246,-4.2552,-4.2563,-4.2773,-4.2778,-4.2784,-4.2875,-4.2873,-4.287,-4.2868,-4.3186,-4.3201,-4.3216,-4.3358,0,0,-4.3262,-4.3269,0,0,0,0,0,0,0,0,-4.2191,-4.2224,-4.2534,-4.2546,-4.2559,-4.2783,-4.2715,-4.2976,-4.2876,-4.2757,-4.287,-4.2867,-4.3059,-4.3084,-4.3149,-4.3374,-4.3387,-4.3263,-4.3273,-4.3279,-4.3284,0,0,0,0,0,0,0,-4.2173,-4.2211,-4.2585,-4.2539,-4.2554,-4.2578,-4.2612,-4.2765,-4.2918,-4.2767,-4.2774,-4.281,-4.3065,-4.3134,-4.3157,-4.3392,-4.3263,-4.3277,-4.3286,-4.3292,-4.375,-4.3753,0,0,0,0,0,0,-4.2139,-4.2196,-4.2575,-4.2595,-4.2365,-4.2589,-4.2627,-4.2713,-4.2916,-4.2945,-4.2812,-4.2813,-4.3109,-4.3139,-4.3169,-4.3348,-4.3279,-4.3293,-4.3302,-4.3747,-4.375,-4.3754,0,0,0,0,0,0,-4.2127,-4.2172,-4.2563,-4.2397,-4.2449,-4.2601,-4.2697,-4.2721,-4.2789,-4.295,-4.2978,-4.2854,-4.3108,-4.3147,-4.331,-4.336,-4.33,-4.3314,-4.3743,-4.3748,-4.3752,-4.3708,0,0,0,0,0,0,-4.2112,-4.2167,-4.2222,-4.2398,-4.2457,-4.2698,-4.27,-4.2729,-4.2815,-4.282,-4.2997,-4.3024,-4.3109,-4.3287,-4.3325,-4.338,-4.3326,-4.3739,-4.3745,-4.3751,-4.3705,-4.371,-4.3714,0,0,0,0,0,-4.2093,-4.2198,-4.2224,-4.2269,-4.2529,-4.27,-4.2735,-4.283,-4.2819,-4.2876,-4.2979,-4.3018,-4.3349,-4.3303,-4.3347,-4.3407,-4.3736,-4.3744,-4.375,-4.3703,-4.3709,-4.3714,0,0,0,0,0,0,-4.2024,-4.2222,-4.2254,-4.2418,-4.2541,-4.2716,-4.279,-4.2833,-4.2963,-4.2962,-4.3076,-4.3116,-4.327,-4.3356,-4.3301,-4.3556,-4.3544,-4.356,-4.3493,-4.3501,-4.3505,-4.348,-4.3339,0,0,0,0,0,-4.2028,-4.215,-4.2317,-4.2446,-4.2506,-4.2637,-4.2715,-4.2778,-4.2911,-4.2964,-4.308,-4.3208,-4.3341,-4.3426,-4.3558,-4.3719,-4.3759,-4.3783,-4.3787,-4.379,-4.3801,-4.3893,-4.3905,-4.3776,-4.3776,-4.3776,0,0,-4.2037,-4.216,-4.223,-4.2435,-4.2538,-4.2662,-4.268,-4.2811,-4.2904,-4.2985,-4.3144,-4.3234,-4.3385,-4.3547,-4.3625,-4.3623,-4.3846,-4.3799,-4.38,-4.381,-4.3901,-4.3913,-4.3923,-4.3781,-4.378,-4.3779,0,0,-4.2116,-4.2222,-4.2341,-4.2444,-4.2599,-4.2686,-4.2714,-4.2883,-4.2944,-4.3107,-4.3169,-4.3283,-4.351,-4.3615,-4.3697,-4.3817,-4.3858,-4.3857,-4.388,-4.3967,-4.3977,-4.3987,-4.4028,-4.4042,-4.3869,-4.3869,-4.3869,0,-4.2108,-4.2296,-4.2396,-4.2523,-4.2611,-4.2689,-4.281,-4.2906,-4.3096,-4.3156,-4.3152,-4.3437,-4.3545,-4.3732,-4.3761,-4.3827,-4.3862,-4.3836,-4.3968,-4.3978,-4.3989,-4.4029,-4.4045,-4.3868,-4.3868,-4.3868,-4.3868,0,-4.2278,-4.2407,-4.2485,-4.2665,-4.2762,-4.2886,-4.3005,-4.3092,-4.3147,-4.3234,-4.3399,-4.353,-4.3689,-4.3739,-4.3795,-4.3935,-4.3929,-4.3945,-4.3935,-4.3998,-4.4038,-4.4054,-4.3866,-4.3866,-4.3867,-4.3867,0,0,-4.232,-4.2555,-4.2581,-4.2664,-4.2842,-4.2945,-4.3072,-4.3227,-4.3298,-4.3428,-4.3537,-4.3728,-4.3744,-4.3838,-4.3906,-4.3983,-4.4068,-4.399,-4.3995,-4.3998,-4.4229,-4.4214,-4.423,-4.4097,-4.41,-4.4103,-4.4216,0,-4.242,-4.2649,-4.2743,-4.2928,-4.3049,-4.3126,-4.3237,-4.3358,-4.3444,-4.356,-4.3656,-4.3788,-4.3799,-4.3856,-4.3936,-4.404,-4.4115,-4.4034,-4.4199,-4.4204,-4.4156,-4.4252,-4.4236,-4.4336,-4.4232,-4.4235,-4.4237,0,-4.2567,-4.2696,-4.2892,-4.3055,-4.311,-4.3207,-4.3356,-4.3466,-4.3606,-4.3663,-4.3768,-4.3833,-4.397,-4.3953,-4.4144,-4.4086,-4.416,-4.4222,-4.4228,-4.4245,-4.4222,-4.4269,-4.4371,-4.4384,-4.4263,-4.4261,-4.4259,0,-4.2576,-4.2799,-4.2945,-4.3014,-4.3208,-4.3275,-4.3359,-4.3497,-4.3583,-4.3715,-4.3772,-4.3918,-4.3997,-4.4109,-4.4212,-4.419,-4.4392,-4.4384,-4.4443,-4.444,-4.448,-4.4476,-4.4592,-4.4531,-4.4531,-4.4531,-4.4531,0,-4.2676,-4.2793,-4.2951,-4.3041,-4.3174,-4.3282,-4.3412,-4.3502,-4.3624,-4.3733,-4.381,-4.391,-4.4041,-4.4159,-4.424,-4.4385,-4.4421,-4.4471,-4.4491,-4.4463,-4.4456,-4.4511,-4.4505,-4.4535,-4.4534,-4.4533,-4.4533,0,-4.2707,-4.2818,-4.2982,-4.3152,-4.3198,-4.3288,-4.3435,-4.3525,-4.3615,-4.3752,-4.3791,-4.3932,-4.4075,-4.4188,-4.4375,-4.443,-4.4582,-4.4605,-4.4534,-4.4543,-4.4595,-4.4588,-4.4749,-4.4775,-4.4698,-4.4699,-4.4699,0,-4.2762,-4.2853,-4.3033,-4.3111,-4.3194,-4.3319,-4.3407,-4.3518,-4.3608,-4.3774,-4.3845,-4.3993,-4.4117,-4.4342,-4.4461,-4.4605,-4.4631,-4.4678,-4.4653,-4.4622,-4.463,-4.4622,-4.4631,-4.468,-4.468,-4.468,-4.468,0,-4.2848,-4.2898,-4.3022,-4.3166,-4.3269,-4.3388,-4.3509,-4.3569,-4.3702,-4.3798,-4.3945,-4.4041,-4.4231,-4.4377,-4.4533,-4.4622,-4.4673,-4.4688,-4.4709,-4.468,-4.4633,-4.4657,-4.4539,-4.4683,-4.4683,-4.4682,-4.4682,-4.4682,-4.2892,-4.2976,-4.3115,-4.3251,-4.3353,-4.3464,-4.3557,-4.3658,-4.3782,-4.3944,-4.4003,-4.4153,-4.4292,-4.4507,-4.4596,-4.4716,-4.472,-4.475,-4.4758,-4.4763,-4.4759,-4.4616,-4.4745,-4.4745,-4.4745,-4.4745,-4.4745,0,-4.298,-4.3073,-4.3197,-4.3363,-4.3469,-4.3509,-4.3644,-4.3731,-4.3862,-4.3986,-4.4107,-4.4275,-4.4417,-4.4548,-4.4697,-4.4767,-4.4795,-4.4803,-4.4797,-4.4817,-4.4748,-4.4714,-4.4778,-4.4778,-4.4778,-4.4778,-4.4778,-4.4778,-4.3038,-4.3182,-4.3249,-4.3445,-4.3539,-4.3685,-4.3759,-4.3862,-4.3962,-4.4145,-4.4263,-4.4348,-4.4476,-4.4634,-4.4767,-4.4802,-4.4852,-4.4853,-4.4894,-4.4827,-4.4822,-4.4817,-4.4786,-4.4864,-4.4864,-4.4953,-4.4954,-4.4955]},{"header":{"parameterUnit":"m.s-1","parameterCategory":1,"la1":30.2991,"la2":30.254,"lo1":-89.0895,"lo2":-89.0444,"dy":0.0017,"dx":0.0017,"nx":28,"ny":28,"refTime":"2023-09-04T03:00:00:Z","depth":0,"parameterNumber":3,"parameterNumberName":"V-component_of_WINDS"},"data":[0,0,0,0,0,0,0,0,0,0,0,0,0,0,0,0,0,0,0,0,0,0,0,0,0,0,0,0,0,0,0,0,0,0,0,0,0,0,0,0,0,0,0,0,0,0,0,0,0,0,0,0,0,0,0,0,0,0,3.227,3.2272,0,3.2382,3.2383,3.2384,3.2327,3.2324,3.2321,3.2318,3.2428,3.2433,3.2439,0,0,0,0,0,0,0,0,0,0,0,0,0,3.2004,3.2009,3.227,3.2272,3.2273,3.2382,3.2383,3.2385,3.2327,3.2324,3.232,3.2317,3.2426,3.2433,3.244,0,0,0,0,0,0,0,0,0,0,0,0,0,3.2118,3.2011,3.227,3.2258,3.2258,3.2381,3.2383,3.2385,3.2328,3.2324,3.2319,3.2315,3.2424,3.2432,3.244,3.2581,0,0,3.2466,3.247,0,0,0,0,0,0,0,0,3.2112,3.2128,3.2258,3.2259,3.2259,3.2336,3.2329,3.2451,3.2329,3.2301,3.2318,3.2313,3.2401,3.2411,3.2441,3.2587,3.2591,3.2467,3.2472,3.2476,3.2478,0,0,0,0,0,0,0,3.2104,3.2123,3.2314,3.226,3.2261,3.2245,3.2257,3.2352,3.2374,3.2303,3.2299,3.2314,3.24,3.2433,3.2443,3.2593,3.2467,3.2475,3.248,3.2483,3.2859,3.2864,0,0,0,0,0,0,3.2097,3.2116,3.2311,3.2318,3.2173,3.2254,3.2266,3.2316,3.2373,3.2378,3.2317,3.231,3.2421,3.2433,3.2447,3.2615,3.2476,3.2484,3.2489,3.2855,3.286,3.2866,0,0,0,0,0,0,3.2092,3.2115,3.2306,3.2216,3.2239,3.2263,3.2319,3.232,3.2353,3.2384,3.2387,3.2347,3.2418,3.2435,3.2549,3.2618,3.2488,3.2496,3.2849,3.2856,3.2863,3.2953,0,0,0,0,0,0,3.2084,3.2113,3.2168,3.2218,3.2244,3.2407,3.2323,3.2326,3.2369,3.2361,3.2413,3.2417,3.2416,3.2536,3.2557,3.2628,3.2502,3.2843,3.2852,3.2861,3.2944,3.2963,3.2979,0,0,0,0,0,3.2075,3.2188,3.2171,3.2195,3.2313,3.2411,3.2426,3.2424,3.2375,3.2429,3.2449,3.2415,3.2608,3.2549,3.2571,3.2645,3.2838,3.2849,3.286,3.2936,3.2959,3.2978,0,0,0,0,0,0,3.2143,3.2194,3.2176,3.2309,3.2357,3.2402,3.247,3.2448,3.251,3.2499,3.2492,3.2505,3.2623,3.2646,3.2579,3.2785,3.2715,3.2731,3.2765,3.2787,3.2804,3.2795,3.2509,0,0,0,0,0,3.2174,3.2251,3.2291,3.2404,3.2429,3.2446,3.2489,3.2483,3.2531,3.2551,3.2578,3.2626,3.2697,3.2743,3.2811,3.2948,3.2958,3.301,3.3028,3.3042,3.3055,3.3129,3.3152,3.2902,3.2902,3.2902,0,0,3.2238,3.2275,3.2324,3.2419,3.2455,3.2534,3.2463,3.2549,3.2607,3.2563,3.2672,3.2695,3.2747,3.2873,3.293,3.2896,3.3127,3.3056,3.3067,3.3072,3.3143,3.3166,3.3187,3.2909,3.2908,3.2907,0,0,3.2394,3.2431,3.2529,3.2568,3.2624,3.2635,3.2659,3.2708,3.2722,3.2832,3.2801,3.2869,3.2992,3.303,3.3066,3.3239,3.321,3.3261,3.3351,3.3423,3.3442,3.346,3.352,3.3542,3.3275,3.3275,3.3275,0,3.2465,3.2584,3.2582,3.2671,3.2713,3.268,3.2779,3.2816,3.2891,3.292,3.2881,3.3035,3.3068,3.3203,3.3245,3.3276,3.3302,3.3254,3.344,3.3458,3.3474,3.3531,3.3554,3.3281,3.328,3.328,3.3279,0,3.2669,3.2752,3.2824,3.2899,3.295,3.3043,3.3054,3.3106,3.3096,3.3111,3.3223,3.3262,3.3336,3.3368,3.3359,3.3502,3.3479,3.3441,3.337,3.3503,3.3557,3.358,3.3289,3.3287,3.3285,3.3284,0,0,3.2868,3.2943,3.297,3.3004,3.3065,3.3128,3.322,3.3295,3.3338,3.3392,3.3468,3.3574,3.3539,3.358,3.3575,3.3638,3.3772,3.3592,3.3593,3.3623,3.3931,3.3958,3.3983,3.3754,3.3759,3.3762,3.3926,0,3.3028,3.319,3.3192,3.334,3.3416,3.3387,3.3466,3.3512,3.3529,3.3595,3.3612,3.3687,3.3636,3.366,3.3722,3.3743,3.3833,3.3731,3.3823,3.3827,3.3809,3.4012,3.4041,3.4193,3.3947,3.395,3.3953,0,3.3234,3.3297,3.3454,3.3504,3.3536,3.3608,3.3677,3.3741,3.3792,3.3799,3.3846,3.3832,3.3925,3.3853,3.398,3.3911,3.3949,3.3965,3.397,3.3977,3.3896,3.4022,3.4242,3.4264,3.3987,3.3984,3.3981,0,3.3363,3.3486,3.3596,3.3626,3.3688,3.3739,3.3767,3.3814,3.3859,3.3919,3.3948,3.4018,3.4055,3.4109,3.4114,3.4061,3.4241,3.417,3.4249,3.4249,3.4286,3.4283,3.4513,3.4314,3.4313,3.4313,3.4313,0,3.3539,3.3636,3.3654,3.3722,3.3829,3.383,3.3936,3.3959,3.4002,3.4072,3.4051,3.4117,3.412,3.4188,3.4193,3.4297,3.4314,3.4322,3.4321,3.4323,3.4322,3.4346,3.4335,3.4319,3.4318,3.4317,3.4316,0,3.37,3.3716,3.3834,3.3884,3.3899,3.3976,3.4018,3.4082,3.4098,3.4187,3.4208,3.4232,3.4311,3.4321,3.4413,3.4416,3.4541,3.453,3.4524,3.4522,3.4599,3.4591,3.4851,3.4885,3.4665,3.4667,3.4669,0,3.3811,3.3885,3.3944,3.399,3.4022,3.4097,3.4143,3.4147,3.4196,3.4261,3.4317,3.4394,3.4456,3.4583,3.4607,3.4678,3.4667,3.4754,3.4677,3.4677,3.4667,3.4662,3.4669,3.4768,3.477,3.4772,3.4774,0,3.4005,3.401,3.4078,3.415,3.4207,3.4263,3.4316,3.4355,3.4366,3.4422,3.4503,3.4551,3.4646,3.4723,3.4793,3.482,3.4799,3.4798,3.4819,3.4821,3.4814,3.4817,3.4562,3.4791,3.4789,3.4788,3.4787,3.4786,3.4143,3.4207,3.4259,3.4336,3.4377,3.4428,3.449,3.4515,3.4583,3.4662,3.466,3.4749,3.4799,3.489,3.4923,3.4992,3.4964,3.4995,3.5003,3.501,3.5017,3.4805,3.5005,3.5004,3.5004,3.5004,3.5003,0,3.4335,3.4367,3.4439,3.4515,3.4575,3.4553,3.461,3.4662,3.4741,3.479,3.4852,3.4946,3.502,3.5052,3.5125,3.5174,3.5166,3.5193,3.5188,3.5195,3.5039,3.5013,3.5198,3.5198,3.5198,3.5198,3.5198,3.5198,3.4442,3.455,3.4561,3.4689,3.472,3.4809,3.4844,3.489,3.4929,3.5035,3.5098,3.5118,3.516,3.5236,3.5303,3.5311,3.5338,3.5369,3.5372,3.5225,3.5206,3.5187,3.5162,3.5375,3.5375,3.5521,3.5522,3.5523]}]]